Flag for Australia Weather past 2 weeks in Mudgee, New South Wales, Australia

Now
38 °F

Passing clouds.


Feels Like: 35 °F
Forecast: 37 / 62 °F
Wind: 5 mph from North

Location: Mudgee Aws

Current Time: May 25, 2015 at 4:17:48 AM

Latest Report: May 25, 2015 at 3:00 AM


Visibility: N/A

Pressure: 30.47 "Hg

Humidity: 98%

Dew point: 38 °F

Location of MudgeeLocation

Historic Weather in Mudgee — Graph

°F

Mudgee temperature yesterday

Maximum temperature yesterday: 61 °F (at 3:00 PM)
Minimum temperature yesterday: 36 °F (at 6:00 AM)
Average temperature yesterday: 47 °F

Past Weeks' High & Low Weather Summary

 TemperatureHumidityPressure
High67 °F (May 20, 3:00 PM)99% (May 19, 8:00 PM)30.59 "Hg (May 19, 8:00 PM)
Low32 °F (May 14, 6:00 AM)39% (May 13, 3:00 PM)29.88 "Hg (May 10, 5:00 PM)
Average53 °F77%30.24 "Hg
* Reported May 10 3:00 AM — May 25 3:00 AM, Mudgee, Weather by CustomWeather, © 2015

Note: Actual official high and low records may vary slightly from our data, if they occured in-between our weather recording intervals... More about our weather records

Advertising

Mudgee weather history for previous 24 hours

 ConditionsComfort  
Time TempWeatherWind HumidityBarometerVisibility
3:00 AM
Mon, May 25
38 °FPassing clouds.5 mph98%30.47 "HgN/A
2:00 AM42 °FQuite cool.3 mph98%30.48 "HgN/A
12:00 AM43 °FOvercast.No wind98%30.48 "HgN/A
11:00 PM
Sun, May 24
44 °FQuite cool.6 mph98%30.50 "HgN/A
9:00 PM45 °FPassing clouds.5 mph94%30.48 "HgN/A
8:00 PM47 °FCool.3 mph93%30.47 "HgN/A
6:00 PM52 °FCool.8 mph80%30.45 "HgN/A
5:00 PM57 °FCool.3 mph63%30.43 "HgN/A
3:00 PM61 °FRefreshingly cool.5 mph56%30.43 "HgN/A
2:00 PM60 °FRefreshingly cool.5 mph59%30.43 "HgN/A
12:00 PM58 °FCool.5 mph68%30.47 "HgN/A
11:00 AM53 °FCool.6 mph81%30.49 "HgN/A
9:00 AM43 °FPassing clouds.No wind99%30.51 "HgN/A
8:00 AM37 °FChilly.1 mph98%30.49 "HgN/A
6:00 AM36 °FChilly.2 mph98%30.45 "HgN/A
5:00 AM38 °FChilly.No wind98%30.44 "HgN/A
Weather by CustomWeather, © 2015

See weather overviewHow to use our weather pages